Flag for Qatar Weather past 2 weeks in Al-Jamiliyah, Qatar

Now
55 °F

Fog.


Feels Like: 55 °F
Forecast: 65 / 79 °F
Wind: 2 mph from Northwest

Location: Al Udeid

Current Time: Dec 20, 2014 at 4:59:48 AM

Latest Report: Dec 20, 2014 at 3:58 AM


Visibility: 3 mi

Pressure: 30.16 "Hg

Humidity: 85%

Dew point: 50 °F

Location of Al-JamiliyahLocation

Historic Weather in Al-Jamiliyah — Graph

°F

Al-Jamiliyah temperature yesterday

Maximum temperature yesterday: 72 °F (at 1:58 PM)
Minimum temperature yesterday: 56 °F (at 4:58 AM)
Average temperature yesterday: 64 °F

Past Weeks' High & Low Weather Summary

 TemperatureHumidityPressure
High81 °F (Dec 15, 12:58 PM)100% (Dec 6, 12:58 AM)30.27 "Hg (Dec 6, 12:58 AM)
Low55 °F (Dec 20, 3:58 AM)26% (Dec 15, 12:58 PM)30.02 "Hg (Dec 16, 2:58 PM)
Average68 °F73%30.12 "Hg
* Reported Dec 5 3:58 AM — Dec 20 3:58 AM, Al-Jamiliyah, Weather by CustomWeather, © 2014

Note: Actual official high and low records may vary slightly from our data, if they occured in-between our weather recording intervals... More about our weather records

Advertising

Al-Jamiliyah weather history for previous 24 hours

 ConditionsComfort  
Time TempWeatherWind HumidityBarometerVisibility
3:58 AM
Dec 20
55 °FFog.2 mph85%30.16 "Hg3 mi
2:58 AM55 °FFog.3 mph83%30.16 "Hg3 mi
1:58 AM56 °FFog.3 mph83%30.17 "Hg3 mi
12:58 AM57 °FFog.3 mph82%30.16 "Hg4 mi
11:58 PM
Dec 19
59 °FFog.5 mph80%30.17 "Hg4 mi
10:58 PM60 °FFog.2 mph77%30.17 "Hg5 mi
9:58 PM61 °FSunny.5 mph74%30.19 "HgN/A
8:58 PM62 °FSunny.5 mph72%30.19 "HgN/A
7:58 PM64 °FSunny.7 mph69%30.19 "HgN/A
6:58 PM66 °FPassing clouds.8 mph65%30.19 "HgN/A
5:58 PM67 °FPassing clouds.8 mph60%30.17 "HgN/A
4:58 PM70 °FPassing clouds.10 mph55%30.16 "HgN/A
3:58 PM71 °FPassing clouds.7 mph50%30.16 "HgN/A
2:58 PM72 °FPassing clouds.7 mph48%30.16 "HgN/A
1:58 PM72 °FPassing clouds.10 mph49%30.16 "HgN/A
12:58 PM71 °FPassing clouds.7 mph52%30.16 "HgN/A
11:58 AM71 °FPassing clouds.6 mph54%30.19 "HgN/A
10:58 AM69 °FPassing clouds.8 mph57%30.22 "HgN/A
9:58 AM68 °FPassing clouds.12 mph59%30.26 "HgN/A
8:58 AM65 °FPassing clouds.13 mph61%30.27 "HgN/A
7:58 AM62 °FPassing clouds.10 mph65%30.27 "HgN/A
6:58 AM58 °FPassing clouds.9 mph71%30.24 "HgN/A
5:58 AM58 °FPassing clouds.10 mph72%30.22 "HgN/A
4:58 AM56 °FFog.8 mph80%30.22 "Hg5 mi
Weather by CustomWeather, © 2014

See weather overviewHow to use our weather pages